NOAA NWS Hourly Roundups by Site

Regional Weather Roundup for Seattle, WA

To Select Another Site Choose from List

Select Site:  

000
ASUS46 KSEW 060510
RWRWA

WASHINGTON REGIONAL WEATHER ROUNDUP
NATIONAL WEATHER SERVICE SEATTLE WA
1000 PM PDT WED OCT 05 2022

NOTE:"FAIR" INDICATES FEW OR NO CLOUDS BELOW 12,000 FEET WITH NO
SIGNIFICANT WEATHER AND/OR OBSTRUCTIONS TO VISIBILITY.

WAZ507-509-555>559-060600-
SEATTLE, TACOMA, EVERETT, AND VICINITY

CITY           SKY/WX    TMP DP  RH WIND       PRES   REMARKS
EVERETT        CLEAR     55  51  86 N3        30.19R
BOEING FIELD   CLEAR     56  54  93 CALM      30.17R
RENTON         CLEAR     56  53  90 CALM      30.17R
SEATAC AIRPORT PTCLDY    57  53  86 N5        30.18R FOG
JBLM-MCCHORD   FOG       48  48 100 CALM      30.17R VSB 5/8
PUYALLUP       DRIZZLE   55  55 100 CALM      30.18R
BREMERTON      CLEAR     48  48 100 CALM      30.18S
JBLM-FT LEWIS  CLEAR     52  50  92 CALM      30.15R
TACOMA NARROWS CLEAR     55  54  96 CALM      30.18R FOG
$$

WAZ001-503-506-510-514-515-060600-
NORTH INTERIOR

CITY           SKY/WX    TMP DP  RH WIND       PRES   REMARKS
BELLINGHAM     CLEAR     53  53 100 CALM      30.17R
FRIDAY HARBOR  CLEAR     52  51  97 CALM      30.18R
EASTSOUND      CLEAR     54  54 100 CALM      30.17R
PORT ANGELES   FOG       52  50  93 CALM      30.20R VSB 1/4
EDIZ HOOK      FOG       51  51 100 W7        30.19R VSB 1/4
PORT TOWNSEND  CLOUDY    50  48  93 CALM      30.17R
NAS WHIDBEY    MOCLDY    51  49  92 CALM      30.21S FOG
ARLINGTON      CLEAR     54  52  93 CALM      30.18S
BURLINGTON     FOG       52  52 100 CALM      30.18S VSB 1/2
$$

WAZ020-022-039-040-504-511-512-060600-
SOUTHWEST INTERIOR

CITY           SKY/WX    TMP DP  RH WIND       PRES   REMARKS
SHELTON        CLEAR     48  48 100 CALM      30.16R FOG
OLYMPIA        FOG       48  47  96 CALM      30.17S VSB 3/4
CHEHALIS       FAIR     N/A N/A N/A CALM      30.16S
KELSO          CLOUDY    60  55  83 N6        30.15R
VANCOUVER      CLEAR     58  53  84 CALM      30.12R
SCAPPOOSE, OR  CLEAR     62  56  80 N12       30.10R
PORTLAND, OR   CLEAR     61  55  81 NW3       30.12R
$$

WAZ021-516-517-060600-
WASHINGTON COAST

CITY           SKY/WX    TMP DP  RH WIND       PRES   REMARKS
FORKS          CLOUDY    57  57 100 VRB3      30.16S
HOQUIAM        CLOUDY    59  57  93 NW3       30.17R FOG
ASTORIA, OR    CLOUDY    58  57  97 NW6       30.13R FOG
$$

WAZ019-023-024-040-567>569-060600-
CASCADE MOUNTAINS AND COLUMBIA GORGE

CITY           SKY/WX    TMP DP  RH WIND       PRES   REMARKS
STAMPEDE PASS  CLEAR     60  43  53 CALM      30.26R
TROUTDALE, OR  CLEAR     56  52  86 E3        30.11R
HOOD RIVER, OR CLEAR     55  54  94 CALM      30.12R
THE DALLES, OR CLEAR     65  57  75 NW8       30.10R
$$

WAZ026-027-041>044-520-521-060600-
EAST SLOPES

CITY           SKY/WX    TMP DP  RH WIND       PRES   REMARKS
OMAK           CLEAR     66  44  45 NW5       30.17R
WENATCHEE      CLEAR     59  48  67 CALM      30.14R
ELLENSBURG     CLEAR     63  42  46 NW5       30.16S
YAKIMA         CLEAR     57  46  66 MISG      30.14R
SUNNYSIDE ARPT CLEAR     54  51  89 CALM      30.11R
YAKIMA TC      FAIR      61  41  47 CALM      30.11R
$$

WAZ028-034-035-060600-
COLUMBIA BASIN

CITY           SKY/WX    TMP DP  RH WIND       PRES   REMARKS
EPHRATA        CLEAR     70  39  32 NW9       30.12S
MOSES LAKE     CLEAR     60  40  47 CALM      30.13R
PASCO          CLEAR     60  54  80 NW5       30.09R
RICHLAND ARPT  CLEAR     62  50  63 W3        30.09R
HERMISTON, OR  CLEAR     60  50  69 S7        30.09R
$$

WAZ036>038-060600-
NORTHEAST WASHINGTON

CITY           SKY/WX    TMP DP  RH WIND       PRES   REMARKS
SPOKANE GEIGER PTCLDY    63  41  44 CALM      30.19R
SPOKANE FELTS  CLEAR     61  46  57 NE5       30.19R
FAIRCHILD AFB  CLEAR     59  40  49 CALM      30.18R
COEURDALENE,ID CLEAR     53  48  83 E3        30.21R
DEER PARK      CLEAR     51  38  60 NE3       30.20R
$$

WAZ029>033-060600-
SOUTHEAST WASHINGTON

CITY           SKY/WX    TMP DP  RH WIND       PRES   REMARKS
PULLMAN        CLEAR     58  43  57 CALM      30.20R
LEWISTON, ID   CLEAR     64  47  53 S3        30.14R
WALLA WALLA    CLEAR     63  48  58 SE6       30.10R
PENDLETON, OR  CLEAR     63  46  54 SE5       30.12R
$$


 

View Past Reports for Seattle, WA.

Products Courtesy of NOAA-NWS
NWS Information Parsing Script by Ken True at Saratoga Weather - Script by SE Lincoln Weather.